Location: Ettringen
(48.1054°N, 10.6545°E)
Time: 06:19:40
(UTC+00:00)

Timation 1 Rocket - Pass Details

Date: 18 November 2025
Orbit: 898 x 905 km, 70.0° (Epoch: 06 December)

Event Time Altitude Azimuth Distance (km) Brightness Sun altitude
Rises 16:50:51 0° 329° (NNW) 3,528 7.6 -12.4°
Reaches altitude 10° 16:53:21 10° 329° (NNW) 2,585 6.9 -12.8°
Maximum altitude 16:59:19 81° 243° (WSW) 917 4.5 -13.8°
Drops below altitude 10° 17:05:16 10° 157° (SSE) 2,572 6.6 -14.7°
Sets 17:07:45 0° 157° (SSE) 3,510 7.3 -15.1°
